Find STARLINK-37239

NORAD ID: 100018 Int'l Des: 2026-160T Owner: SPXS Country: US Constellation: starlink operational

現在のビュー

3D地球を読み込み中...

About STARLINK-37239

STARLINK-37239 (NORAD 100018) is a starlink constellation satellite (v2 mini) launched Jul 14, 2026 by SPXS of US. with a mass of 575.00 kg.

次回通過

Passes for default location (London). Set your location on the main map for personalized predictions.

高度履歴

Loading altitude history...

軌道要素

1 A0018U 26160T 26223.61051650 .00087624 00000-0 63743-3 0 9996
2 A0018 70.0001 307.8022 0003438 277.5914 82.4893 15.72929928 5715
Epoch: Aug 11, 2026 • Age: 18 hours

現在のステータス

高度 373.2 km
遠地点 / 近地点 N/A
速度 7.69 km/s
衛星直下点 -69.13°S, 108.18°E
打ち上げ日 Jul 14, 2026
運用期間 29 days
タイプ internet

技術仕様

分類 Payload
質量 575.00 kg
乾燥質量 530.00 kg
総質量 575.00 kg
長さ 0.30 m
直径 4.10 m
スパン 29.00 m
形状 Box + pan
製造者 SPXS
バスタイプ Starlink V2MO
フェーズステータス In Orbit
所有者/国 SPXS/US

Most Searched